Hourly Weather Rupnagar

Today, 20 April, Tuesday

Time Temperature Precipitation Wind Pressure Humidity
00:00 +26°C° 0 mm 2 mps 731 mmHg 17%
01:00 +25°C° 0 mm 2 mps 731 mmHg 17%
02:00 +25°C° 0 mm 2 mps 730 mmHg 18%
03:00 +25°C° 0 mm 2 mps 730 mmHg 19%
04:00 +24°C° 0 mm 2 mps 730 mmHg 19%
05:00 +24°C° 0 mm 2 mps 730 mmHg 20%
06:00 +26°C° 0 mm 2 mps 730 mmHg 18%
07:00 +28°C° 0 mm 2 mps 731 mmHg 16%
08:00 +29°C° 0 mm 1 mps 731 mmHg 15%
09:00 +31°C° 0 mm 2 mps 732 mmHg 13%
10:00 +33°C° 0 mm 3 mps 732 mmHg 12%
11:00 +34°C° 0 mm 5 mps 733 mmHg 11%
12:00 +35°C° 0 mm 5 mps 732 mmHg 11%
13:00 +35°C° 0 mm 5 mps 731 mmHg 12%
14:00 +35°C° 0 mm 5 mps 731 mmHg 13%
15:00 +35°C° 0 mm 4 mps 730 mmHg 14%
16:00 +34°C° 0 mm 3 mps 730 mmHg 15%
17:00 +34°C° 0 mm 2 mps 730 mmHg 17%
18:00 +31°C° 0 mm 2 mps 730 mmHg 20%
19:00 +29°C° 0 mm 2 mps 731 mmHg 23%
20:00 +27°C° 0 mm 2 mps 731 mmHg 27%
21:00 +26°C° 0.2 mm 3 mps 732 mmHg 34%
22:00 +25°C° 0.2 mm 3 mps 732 mmHg 41%
23:00 +23°C° 0.2 mm 4 mps 732 mmHg 49%

Tomorrow, 21 April, Wednesday

Time Temperature Precipitation Wind Pressure Humidity
00:00 +22°C° 0 mm 3 mps 731 mmHg 52%
01:00 +21°C° 0 mm 3 mps 730 mmHg 55%
02:00 +20°C° 0 mm 2 mps 729 mmHg 58%
03:00 +20°C° 0.2 mm 3 mps 730 mmHg 60%
04:00 +20°C° 0.2 mm 4 mps 730 mmHg 63%
05:00 +20°C° 0.2 mm 5 mps 731 mmHg 65%
06:00 +21°C° 0.1 mm 4 mps 731 mmHg 61%
07:00 +22°C° 0.1 mm 3 mps 732 mmHg 57%
08:00 +24°C° 0.1 mm 2 mps 733 mmHg 52%
09:00 +27°C° 0 mm 4 mps 733 mmHg 44%
10:00 +29°C° 0 mm 5 mps 733 mmHg 35%
11:00 +33°C° 0 mm 6 mps 733 mmHg 27%
12:00 +33°C° 0 mm 6 mps 732 mmHg 26%
13:00 +34°C° 0 mm 6 mps 732 mmHg 24%
14:00 +35°C° 0 mm 6 mps 731 mmHg 23%
15:00 +34°C° 0 mm 6 mps 731 mmHg 23%
16:00 +34°C° 0 mm 5 mps 731 mmHg 23%
17:00 +34°C° 0 mm 5 mps 731 mmHg 23%
18:00 +30°C° 0 mm 4 mps 731 mmHg 31%
19:00 +28°C° 0 mm 4 mps 732 mmHg 40%
20:00 +25°C° 0 mm 3 mps 732 mmHg 49%
21:00 +24°C° 0 mm 3 mps 732 mmHg 50%
22:00 +23°C° 0 mm 2 mps 733 mmHg 52%
23:00 +23°C° 0 mm 1 mps 733 mmHg 54%

Day after tomorrow, 22 April, Thursday

Time Temperature Precipitation Wind Pressure Humidity
00:00 +22°C° 0.2 mm 1 mps 733 mmHg 56%
01:00 +22°C° 0.2 mm 1 mps 733 mmHg 58%
02:00 +21°C° 0.2 mm 1 mps 733 mmHg 61%
03:00 +21°C° 0.7 mm 1 mps 733 mmHg 63%
04:00 +20°C° 0.7 mm 1 mps 733 mmHg 66%
05:00 +20°C° 0.7 mm 1 mps 733 mmHg 68%
06:00 +22°C° 0.1 mm 1 mps 734 mmHg 60%
07:00 +24°C° 0.1 mm 1 mps 734 mmHg 52%
08:00 +26°C° 0.1 mm 2 mps 735 mmHg 44%
09:00 +28°C° 0 mm 3 mps 735 mmHg 38%
10:00 +30°C° 0 mm 3 mps 735 mmHg 31%
11:00 +33°C° 0 mm 4 mps 734 mmHg 25%
12:00 +34°C° 0 mm 4 mps 734 mmHg 23%
13:00 +35°C° 0 mm 3 mps 733 mmHg 20%
14:00 +36°C° 0 mm 2 mps 732 mmHg 18%
15:00 +35°C° 0.1 mm 3 mps 732 mmHg 19%
16:00 +34°C° 0.1 mm 4 mps 732 mmHg 21%
17:00 +34°C° 0.1 mm 4 mps 731 mmHg 22%
18:00 +30°C° 0.3 mm 4 mps 732 mmHg 32%
19:00 +27°C° 0.3 mm 4 mps 732 mmHg 41%
20:00 +23°C° 0.3 mm 4 mps 733 mmHg 50%
21:00 +22°C° 0 mm 4 mps 733 mmHg 52%
22:00 +22°C° 0 mm 4 mps 733 mmHg 53%
23:00 +21°C° 0 mm 4 mps 733 mmHg 54%

23 April, Friday

Time Temperature Precipitation Wind Pressure Humidity
00:00 +21°C° 0 mm 3 mps 732 mmHg 53%
01:00 +21°C° 0 mm 3 mps 732 mmHg 51%
02:00 +21°C° 0 mm 3 mps 732 mmHg 50%
03:00 +21°C° 0.1 mm 2 mps 731 mmHg 50%
04:00 +21°C° 0.1 mm 2 mps 731 mmHg 50%
05:00 +21°C° 0.1 mm 2 mps 731 mmHg 51%
06:00 +21°C° 0.5 mm 4 mps 732 mmHg 51%
07:00 +22°C° 0.5 mm 6 mps 733 mmHg 51%
08:00 +22°C° 0.5 mm 8 mps 734 mmHg 51%
09:00 +24°C° 0.3 mm 7 mps 734 mmHg 45%
10:00 +27°C° 0.3 mm 6 mps 734 mmHg 39%
11:00 +28°C° 0.3 mm 6 mps 734 mmHg 33%
12:00 +30°C° 0 mm 6 mps 734 mmHg 30%
13:00 +32°C° 0 mm 5 mps 733 mmHg 27%
14:00 +34°C° 0 mm 5 mps 732 mmHg 24%
15:00 +33°C° 0 mm 5 mps 732 mmHg 25%
16:00 +33°C° 0 mm 5 mps 731 mmHg 27%
17:00 +32°C° 0 mm 5 mps 731 mmHg 28%
18:00 +29°C° 0 mm 4 mps 731 mmHg 34%
19:00 +27°C° 0 mm 3 mps 731 mmHg 40%
20:00 +25°C° 0 mm 3 mps 732 mmHg 45%
21:00 +24°C° 0 mm 2 mps 732 mmHg 47%
22:00 +24°C° 0 mm 2 mps 732 mmHg 48%
23:00 +23°C° 0 mm 2 mps 733 mmHg 49%

24 April, Saturday

Time Temperature Precipitation Wind Pressure Humidity
00:00 +23°C° 0 mm 2 mps 732 mmHg 48%
01:00 +23°C° 0 mm 2 mps 732 mmHg 48%
02:00 +21°C° 0 mm 2 mps 732 mmHg 48%
03:00 +21°C° 0 mm 2 mps 732 mmHg 47%
04:00 +21°C° 0 mm 2 mps 732 mmHg 46%
05:00 +20°C° 0 mm 2 mps 732 mmHg 46%
06:00 +24°C° 0 mm 1 mps 733 mmHg 40%
07:00 +26°C° 0 mm 1 mps 733 mmHg 34%
08:00 +28°C° 0 mm 1 mps 734 mmHg 28%
09:00 +31°C° 0 mm 1 mps 734 mmHg 25%
10:00 +33°C° 0 mm 1 mps 734 mmHg 22%
11:00 +36°C° 0 mm 2 mps 734 mmHg 19%
12:00 +37°C° 0 mm 2 mps 733 mmHg 17%
13:00 +38°C° 0 mm 2 mps 733 mmHg 15%
14:00 +39°C° 0 mm 3 mps 732 mmHg 14%
15:00 +39°C° 0 mm 3 mps 732 mmHg 14%
16:00 +38°C° 0 mm 3 mps 732 mmHg 13%
17:00 +38°C° 0 mm 3 mps 731 mmHg 13%
18:00 +36°C° 0 mm 3 mps 732 mmHg 16%
19:00 +34°C° 0 mm 3 mps 732 mmHg 19%
20:00 +30°C° 0 mm 3 mps 732 mmHg 22%
21:00 +29°C° 0 mm 2 mps 732 mmHg 24%
22:00 +29°C° 0 mm 2 mps 732 mmHg 25%
23:00 +28°C° 0 mm 2 mps 732 mmHg 26%

25 April, Sunday

Time Temperature Precipitation Wind Pressure Humidity
00:00 +27°C° 0 mm 2 mps 732 mmHg 27%
01:00 +26°C° 0 mm 3 mps 732 mmHg 28%
02:00 +25°C° 0 mm 3 mps 732 mmHg 28%
03:00 +25°C° 0 mm 3 mps 732 mmHg 27%
04:00 +24°C° 0 mm 3 mps 732 mmHg 26%
05:00 +24°C° 0 mm 3 mps 732 mmHg 24%
06:00 +26°C° 0 mm 3 mps 732 mmHg 21%
07:00 +29°C° 0 mm 3 mps 733 mmHg 17%
08:00 +31°C° 0 mm 2 mps 733 mmHg 13%
09:00 +35°C° 0 mm 3 mps 733 mmHg 11%
10:00 +37°C° 0 mm 3 mps 733 mmHg 10%
11:00 +41°C° 0 mm 4 mps 733 mmHg 8%
12:00 +42°C° 0 mm 4 mps 732 mmHg 7%
13:00 +43°C° 0 mm 4 mps 731 mmHg 7%
14:00 +43°C° 0 mm 4 mps 731 mmHg 6%
15:00 +43°C° 0 mm 4 mps 730 mmHg 6%
16:00 +42°C° 0 mm 5 mps 730 mmHg 6%
17:00 +42°C° 0 mm 5 mps 730 mmHg 7%
18:00 +38°C° 0 mm 4 mps 730 mmHg 9%
19:00 +35°C° 0 mm 3 mps 730 mmHg 11%
20:00 +31°C° 0 mm 3 mps 730 mmHg 13%
21:00 +30°C° 0 mm 3 mps 730 mmHg 14%
22:00 +30°C° 0 mm 2 mps 731 mmHg 15%
23:00 +29°C° 0 mm 2 mps 731 mmHg 16%
Show more